Jacksonville, TX

6:48 PM CST on November 22, 2017 (GMT -0600)
Cherokee County

Weather History for KJSO - January, 2013

Change the Weather History Date:

Monday, January 14, 2013

  Actual Average (KOCH) Record (KOCH)
Temperature  
Mean Temperature 34 °F -  
Max Temperature 39 °F 57 °F 73 °F (2017)
Min Temperature 29 °F 37 °F 21 °F (2009)
Degree Days  
Heating Degree Days 31    
Moisture  
Dew Point 27 °F    
Average Humidity 80    
Maximum Humidity 92    
Minimum Humidity 63    
Precipitation  
Precipitation 0.00 in - - ()
Sea Level Pressure  
Sea Level Pressure 30.21 in    
Wind  
Wind Speed 10 mph (NE)    
Max Wind Speed 13 mph    
Max Gust Speed 22 mph    
Visibility 10 miles    
Events      
Averages and records for this station are not official NWS values.
T = Trace of Precipitation, MM = Missing Value Source: NWS Daily Summary

Daily Weather History Graph

Daily Weather History Graph

Search for Another Location

Airport or City:

Trip Planner

Search our weather history database for the weather conditions in past years. The results will help you decide how hot, cold, wet, or windy it might be!

Date:

Astronomy

Jan. 14, 2013 Rise Set
Actual Time 7:21 AM CST 5:38 PM CST
Civil Twilight 6:55 AM CST 6:05 PM CST
Nautical Twilight 6:25 AM CST 6:35 PM CST
Astronomical Twilight 5:55 AM CST 7:04 PM CST
Moon 9:09 AM CST (1/14) 9:09 PM CST (1/14)
Length of Visible Light 11h 10m
Length of Day
10h 17m
Waxing Crescent, 11% of the Moon is Illuminated
Jan 14
Waxing Crescent
Jan 18
First Quarter
Jan 26
Full
Feb 3
Last Quarter
Feb 10
New

Hourly Weather History & Observations

Time (CST) Temp. Windchill Dew Point Humidity Pressure Visibility Wind Dir Wind Speed Gust Speed Precip Events Conditions
12:15 AM 32.0 °F 24.2 °F 26.6 °F 80% 30.20 in 10.0 mi NNE 9.2 mph - N/A   Scattered Clouds
12:35 AM 32.0 °F 24.2 °F 26.2 °F 79% 30.20 in 10.0 mi NNE 9.2 mph - N/A   Scattered Clouds
12:55 AM 32.0 °F 22.5 °F 26.1 °F 79% 30.20 in 10.0 mi NNE 12.7 mph 18.4 mph N/A   Clear
1:15 AM 31.8 °F 22.8 °F 25.9 °F 79% 30.20 in 10.0 mi NNE 11.5 mph - N/A   Scattered Clouds
1:35 AM 31.5 °F 22.3 °F 25.7 °F 79% 30.20 in 10.0 mi NNE 11.5 mph - N/A   Scattered Clouds
1:55 AM 31.6 °F 23.1 °F 26.2 °F 80% 30.19 in 10.0 mi NNE 10.4 mph 17.3 mph N/A   Mostly Cloudy
2:35 AM 31.6 °F 23.1 °F 26.6 °F 82% 30.18 in 10.0 mi NNE 10.4 mph - N/A   Overcast
2:55 AM 31.5 °F 21.8 °F 27.0 °F 83% 30.18 in 10.0 mi NNE 12.7 mph 17.3 mph N/A   Overcast
3:15 AM 31.1 °F 22.4 °F 27.3 °F 86% 30.18 in 10.0 mi NNE 10.4 mph - N/A   Scattered Clouds
3:55 AM 30.9 °F 21.7 °F 27.3 °F 86% 30.18 in 10.0 mi North 11.5 mph 17.3 mph N/A   Clear
4:15 AM 30.7 °F 23.3 °F 27.1 °F 86% 30.20 in 10.0 mi North 8.1 mph 17.3 mph N/A   Mostly Cloudy
4:55 AM 31.3 °F 21.6 °F 27.1 °F 85% 30.21 in 10.0 mi NNE 12.7 mph 18.4 mph N/A   Overcast
5:15 AM 31.1 °F 22.4 °F 27.0 °F 85% 30.20 in 10.0 mi NNE 10.4 mph 21.9 mph N/A   Overcast
5:55 AM 31.3 °F 23.9 °F 27.1 °F 85% 30.24 in 10.0 mi North 8.1 mph - N/A   Overcast
6:15 AM 30.9 °F 21.2 °F 27.1 °F 86% 30.20 in 10.0 mi NNE 12.7 mph 21.9 mph N/A   Overcast
6:35 AM 30.6 °F 23.1 °F 27.3 °F 88% 30.25 in 10.0 mi NNE 8.1 mph - N/A   Overcast
6:55 AM 30.2 °F 20.2 °F 27.3 °F 89% 30.25 in 10.0 mi North 12.7 mph 17.3 mph N/A   Overcast
7:15 AM 30.2 °F 20.2 °F 27.3 °F 89% 30.23 in 7.0 mi NNE 12.7 mph 19.6 mph N/A   Overcast
7:35 AM 29.8 °F 20.3 °F 27.7 °F 92% 30.26 in 10.0 mi North 11.5 mph 18.4 mph N/A   Overcast
7:55 AM 29.7 °F 20.7 °F 27.5 °F 92% 30.29 in 10.0 mi North 10.4 mph 16.1 mph N/A   Overcast
8:15 AM 29.8 °F 20.9 °F 27.9 °F 92% 30.26 in 5.0 mi North 10.4 mph 19.6 mph N/A   Overcast
8:55 AM 29.7 °F 20.7 °F 27.7 °F 92% 30.29 in 10.0 mi North 10.4 mph - N/A   Overcast
9:15 AM 29.7 °F 19.6 °F 27.1 °F 90% 30.28 in 10.0 mi NNE 12.7 mph 20.7 mph N/A   Overcast
9:35 AM 29.8 °F 20.9 °F 26.6 °F 88% 30.27 in 10.0 mi NNE 10.4 mph 19.6 mph N/A   Overcast
9:55 AM 30.2 °F 21.3 °F 26.8 °F 87% 30.28 in 10.0 mi NNE 10.4 mph 17.3 mph N/A   Overcast
10:15 AM 30.6 °F 20.7 °F 26.6 °F 85% 30.27 in 10.0 mi NE 12.7 mph 19.6 mph N/A   Overcast
10:35 AM 31.3 °F 21.6 °F 27.0 °F 84% 30.25 in 10.0 mi NE 12.7 mph 19.6 mph N/A   Overcast
10:55 AM 31.8 °F 23.9 °F 27.1 °F 83% 30.24 in 10.0 mi NNE 9.2 mph 20.7 mph N/A   Overcast
11:15 AM 31.8 °F 23.3 °F 27.0 °F 82% 30.24 in 10.0 mi NE 10.4 mph 16.1 mph N/A   Overcast
11:35 AM 32.0 °F 24.8 °F 27.5 °F 83% 30.25 in 10.0 mi NE 8.1 mph - N/A   Overcast
11:55 AM 32.4 °F 24.6 °F 27.7 °F 83% 30.24 in 10.0 mi NE 9.2 mph - N/A   Overcast
12:15 PM 33.3 °F 27.1 °F 28.4 °F 82% 30.23 in 10.0 mi NE 6.9 mph - N/A   Overcast
12:35 PM 33.8 °F 27.0 °F 28.0 °F 79% 30.23 in 10.0 mi NE 8.1 mph - N/A   Overcast
12:55 PM 36.1 °F 30.6 °F 28.8 °F 75% 30.23 in 10.0 mi NNE 6.9 mph - N/A   Overcast
1:15 PM 36.5 °F 29.7 °F 28.8 °F 74% 30.21 in 10.0 mi NE 9.2 mph - N/A   Overcast
1:35 PM 37.0 °F 31.0 °F 28.8 °F 72% 30.20 in 10.0 mi NE 8.1 mph - N/A   Overcast
1:55 PM 37.2 °F 31.2 °F 28.2 °F 70% 30.19 in 10.0 mi NE 8.1 mph - N/A   Mostly Cloudy
2:15 PM 38.1 °F 31.2 °F 28.6 °F 69% 30.20 in 10.0 mi NE 10.4 mph - N/A   Mostly Cloudy
2:35 PM 37.9 °F 32.7 °F 28.6 °F 69% 30.20 in 10.0 mi NE 6.9 mph - N/A   Mostly Cloudy
3:15 PM 39.4 °F 32.7 °F 28.2 °F 64% 30.20 in 10.0 mi NE 10.4 mph 17.3 mph N/A   Scattered Clouds
3:35 PM 39.7 °F 33.7 °F 28.6 °F 64% 30.20 in 10.0 mi NNE 9.2 mph - N/A   Clear
4:15 PM 39.2 °F 32.5 °F 27.5 °F 63% 30.21 in 10.0 mi NE 10.4 mph 16.1 mph N/A   Clear
4:35 PM 38.7 °F 32.9 °F 27.3 °F 64% 30.21 in 10.0 mi ENE 8.1 mph 16.1 mph N/A   Clear
4:55 PM 38.1 °F 31.7 °F 27.5 °F 66% 30.20 in 10.0 mi ENE 9.2 mph - N/A   Clear
5:15 PM 37.4 °F 30.3 °F 27.7 °F 68% 30.21 in 10.0 mi ENE 10.4 mph - N/A   Clear
5:35 PM 36.5 °F 30.3 °F 28.2 °F 72% 30.21 in 10.0 mi ENE 8.1 mph - N/A   Clear
5:55 PM 36.0 °F 29.6 °F 28.4 °F 74% 30.21 in 10.0 mi ENE 8.1 mph - N/A   Clear
6:15 PM 35.6 °F 28.6 °F 28.4 °F 75% 30.21 in 10.0 mi ENE 9.2 mph - N/A   Clear
6:35 PM 35.1 °F 27.4 °F 28.4 °F 77% 30.21 in 10.0 mi NE 10.4 mph - N/A   Clear
7:15 PM 34.7 °F 27.5 °F 28.0 °F 77% 30.22 in 10.0 mi NE 9.2 mph - N/A   Clear
7:35 PM 34.2 °F 26.8 °F 27.9 °F 78% 30.21 in 10.0 mi NE 9.2 mph - N/A   Clear
7:55 PM 33.8 °F 24.8 °F 27.5 °F 78% 30.20 in 10.0 mi NE 12.7 mph 17.3 mph N/A   Clear
8:15 PM 33.3 °F 25.1 °F 27.5 °F 79% 30.20 in 10.0 mi NE 10.4 mph - N/A   Clear
8:35 PM 33.1 °F 25.5 °F 27.3 °F 79% 30.19 in 10.0 mi NE 9.2 mph - N/A   Clear
8:55 PM 32.7 °F 25.0 °F 27.3 °F 81% 30.19 in 10.0 mi NE 9.2 mph - N/A   Clear
9:15 PM 32.2 °F 24.4 °F 27.3 °F 82% 30.18 in 10.0 mi NE 9.2 mph - N/A   Clear
9:35 PM 32.0 °F 24.2 °F 27.1 °F 82% 30.18 in 10.0 mi NE 9.2 mph - N/A   Clear
9:55 PM 32.0 °F 23.6 °F 26.6 °F 80% 30.18 in 10.0 mi NE 10.4 mph - N/A   Clear
10:15 PM 32.0 °F 23.6 °F 26.6 °F 80% 30.19 in 10.0 mi NE 10.4 mph - N/A   Clear
10:35 PM 31.6 °F 22.6 °F 26.4 °F 81% 30.19 in 10.0 mi NE 11.5 mph 17.3 mph N/A   Clear
10:55 PM 31.3 °F 22.7 °F 26.1 °F 81% 30.18 in 10.0 mi NNE 10.4 mph - N/A   Clear
11:15 PM 31.1 °F 22.4 °F 25.7 °F 80% 30.18 in 10.0 mi NE 10.4 mph - N/A   Clear
11:35 PM 31.5 °F 22.9 °F 25.7 °F 79% 30.18 in 10.0 mi NE 10.4 mph - N/A   Mostly Cloudy